Location: Chequamegon National Forest
(46.1070°N, 90.8420°W)
Time: 11:52:37
(UTC-05:00)

Amateur Radio Satellites - All Passes

Search period start: 30 September 2016 11:22
Search period end: 01 October 2016 11:22
Location: Chequamegon National Forest, 46.1070°N, 90.8420°W

Satellite Date Start Highest point End Downlink Frequencies (MHz)
Time Altitude Azimuth
PHONESAT 2.4 30 Sep 11:32:47 11:35:14 24° 172° (S) 11:37:42 2401.200-2431.200
AIST 2 30 Sep 11:37:07 11:41:13 51° 49° (NE) 11:45:19 435.215
BUGSAT 1 30 Sep 11:37:41 11:41:08 27° 67° (ENE) 11:44:34 437.445
JAS-2 30 Sep 11:41:10 11:47:48 65° 70° (ENE) 11:55:15 435.910
DUCHIFAT 1 30 Sep 11:45:58 11:50:08 78° 75° (ENE) 11:54:20 145.980
ANTELSAT 30 Sep 11:49:22 11:51:35 14° 270° (W) 11:53:49 437.575/2403.000
QB50P1 30 Sep 11:51:13 11:55:25 82° 257° (WSW) 11:59:38 145.935-145.965
DELFI C3 30 Sep 11:56:10 11:59:22 23° 294° (WNW) 12:02:34 145.870
FUNcube-1 30 Sep 12:00:12 12:02:01 13° 300° (WNW) 12:03:53 145.935
POPSAT HIP 1 30 Sep 12:05:07 12:09:16 59° 259° (W) 12:13:26 437.405
CUBEBUG 1 30 Sep 12:11:29 12:15:10 27° 95° (E) 12:18:50 437.445
Gurwin Techsat 1B 30 Sep 12:14:16 12:14:58 10° 52° (NE) 12:15:40 435.225
VELOX 1 30 Sep 12:14:45 12:18:15 23° 94° (E) 12:21:42 145.980
NANOSAT C BR1 30 Sep 12:19:40 12:23:39 42° 261° (W) 12:27:39 145.865
ESTCUBE 1 30 Sep 12:26:49 12:31:20 60° 101° (E) 12:35:48 437.505/2401.250
PCSat 30 Sep 12:28:41 12:33:51 42° 49° (NE) 12:38:59 145.827
Oscar 19 30 Sep 12:29:12 12:33:25 26° 62° (ENE) 12:37:37 437.125/150
50 SAT 30 Sep 12:34:47 12:38:08 32° 97° (E) 12:41:26 437.505
HUMSAT D 30 Sep 12:38:33 12:41:33 19° 296° (WNW) 12:44:33 437.325/437.525
SPROUT 30 Sep 12:39:07 12:42:32 23° 94° (E) 12:45:56 437.525
QB50P2 30 Sep 12:46:53 12:50:04 21° 267° (W) 12:53:16 145.880/145.840
POLYITAN 1 30 Sep 12:49:05 12:52:15 21° 267° (W) 12:55:26 437.675
YUBILEINY 30 Sep 12:49:55 12:57:12 28° 63° (ENE) 13:04:25 435.215
AUBIESAT-1 30 Sep 12:51:18 12:53:15 15° 99° (E) 12:55:14 437.475
Cosmos 2491 30 Sep 12:56:43 12:59:06 11° 69° (ENE) 13:01:28 435.465 / 435.565
UKube-1 30 Sep 12:58:45 13:02:36 30° 96° (E) 13:06:24 .
AISAT 30 Sep 13:07:07 13:11:33 81° 106° (ESE) 13:15:55 437.250
PHONESAT 2.4 30 Sep 13:08:27 13:10:54 24° 189° (S) 13:13:20 2401.200-2431.200
BUGSAT 1 30 Sep 13:12:53 13:16:26 28° 264° (W) 13:20:00 437.445
AIST 2 30 Sep 13:16:18 13:19:22 20° 247° (WSW) 13:22:26 435.215
DUCHIFAT 1 30 Sep 13:25:36 13:26:22 10° 272° (W) 13:27:09 145.980
JAS-2 30 Sep 13:27:50 13:33:26 28° 271° (W) 13:39:35 435.910
M-CUBED/EXP-1 PRIME 30 Sep 13:30:14 13:33:28 57° 107° (ESE) 13:36:42 437.505
ITAMSAT 1 30 Sep 13:30:27 13:33:06 14° 55° (NE) 13:35:47 435.822/435.867
DX 1 30 Sep 13:32:38 13:37:00 89° 108° (ESE) 13:41:20 434.975-435.025
CUBEBUG 1 30 Sep 13:47:37 13:51:28 32° 293° (WNW) 13:55:18 437.445
Gurwin Techsat 1B 30 Sep 13:48:38 13:53:51 60° 71° (ENE) 13:59:05 435.225
TISAT 1 30 Sep 13:49:01 13:52:31 25° 95° (E) 13:56:01 437.305
Cosmos 2504 30 Sep 13:50:36 13:56:29 24° 64° (ENE) 14:02:36 435.465 / 435.565
VELOX 1 30 Sep 13:50:44 13:54:51 39° 291° (WNW) 13:58:55 145.980
SO-50 30 Sep 13:58:57 14:01:50 16° 110° (ESE) 14:04:41 436.795
AO-7 30 Sep 14:00:05 14:06:52 29° 51° (NE) 14:13:37 29.400- 29.500
ESTCUBE 1 30 Sep 14:04:44 14:07:41 17° 299° (WNW) 14:10:37 437.505/2401.250
Oscar 19 30 Sep 14:07:26 14:12:27 49° 261° (W) 14:17:30 437.125/150
50 SAT 30 Sep 14:08:43 14:11:26 20° 294° (WNW) 14:14:07 437.505
SWISSCUBE 30 Sep 14:09:04 14:09:20 10° 86° (E) 14:09:36 437.505
PCSat 30 Sep 14:12:17 14:17:09 34° 248° (WSW) 14:22:00 145.827
SPROUT 30 Sep 14:14:40 14:18:34 36° 291° (WNW) 14:22:27 437.525
BEESAT 30 Sep 14:20:10 14:22:07 12° 88° (E) 14:24:02 436.000
AUBIESAT-1 30 Sep 14:24:52 14:27:54 34° 295° (WNW) 14:30:57 437.475
UKube-1 30 Sep 14:34:53 14:38:34 28° 294° (WNW) 14:42:15 .
Cosmos 2491 30 Sep 14:45:19 14:53:52 59° 91° (E) 15:02:28 435.465 / 435.565
AISAT 30 Sep 14:45:26 14:47:23 13° 302° (WNW) 14:49:19 437.250
PHONESAT 2.4 30 Sep 14:45:50 14:46:22 10° 205° (SSW) 14:46:55 2401.200-2431.200
YUBILEINY 30 Sep 14:46:12 14:54:52 73° 266° (W) 15:03:30 435.215
AIST 1 30 Sep 14:55:07 14:55:39 10° 63° (ENE) 14:56:11
ITAMSAT 1 30 Sep 15:06:38 15:11:49 86° 73° (ENE) 15:17:03 435.822/435.867
M-CUBED/EXP-1 PRIME 30 Sep 15:06:51 15:07:36 11° 305° (NW) 15:08:21 437.505
DX 1 30 Sep 15:11:01 15:12:30 12° 303° (WNW) 15:13:58 434.975-435.025
TISAT 1 30 Sep 15:24:30 15:28:11 31° 292° (WNW) 15:31:52 437.305
O/OREOS (USA 219) 30 Sep 15:29:10 15:32:30 19° 50° (NE) 15:35:49 437.305
Gurwin Techsat 1B 30 Sep 15:30:21 15:34:12 20° 269° (W) 15:38:05 435.225
ITUPSAT 1 30 Sep 15:31:37 15:36:23 58° 102° (ESE) 15:41:07 437.325
SO-50 30 Sep 15:36:54 15:41:45 78° 308° (NW) 15:46:32 436.795
SWISSCUBE 30 Sep 15:43:02 15:47:52 83° 106° (ESE) 15:52:41 437.505
Cosmos 2504 30 Sep 15:43:09 15:50:35 75° 265° (W) 15:58:32 435.465 / 435.565
HORYU 2 30 Sep 15:46:21 15:47:56 12° 57° (ENE) 15:49:30 437.375
AO-7 30 Sep 15:50:33 15:58:53 79° 252° (WSW) 16:07:14 29.400- 29.500
BEESAT 30 Sep 15:55:41 16:00:31 83° 286° (WNW) 16:05:18 436.000
AIST 1 30 Sep 16:29:37 16:33:57 86° 262° (W) 16:38:12
GOMX 1 30 Sep 16:37:43 16:39:36 12° 58° (ENE) 16:41:28 467.674
Cosmos 2491 30 Sep 16:43:15 16:51:09 36° 293° (WNW) 16:59:09 435.465 / 435.565
YUBILEINY 30 Sep 16:45:33 16:50:01 15° 287° (WNW) 16:54:29 435.215
ITAMSAT 1 30 Sep 16:49:35 16:51:58 13° 272° (W) 16:54:22 435.822/435.867
CUBESAT XI-V 30 Sep 16:49:46 16:50:06 10° 86° (E) 16:50:27 437.345
MOZHAYETS 4 30 Sep 16:55:28 17:00:09 79° 104° (ESE) 17:04:48
NOAA 18 30 Sep 16:57:01 17:00:03 15° 55° (NE) 17:03:04 137.9125
KKS-1 30 Sep 16:59:04 17:03:25 52° 100° (E) 17:07:45 437.445
BRITE-PL 30 Sep 16:59:53 17:05:06 39° 68° (ENE) 17:10:10 437.365/2234.400
NOAA 15 30 Sep 17:02:52 17:06:56 23° 60° (ENE) 17:10:59 137.62
O/OREOS (USA 219) 30 Sep 17:07:47 17:12:21 61° 249° (WSW) 17:16:51 437.305
ITUPSAT 1 30 Sep 17:10:21 17:13:47 20° 299° (WNW) 17:17:14 437.325
GONETS M04 30 Sep 17:15:48 17:17:35 11° 45° (NE) 17:19:23
HORYU 2 30 Sep 17:19:23 17:23:47 90° 293° (WNW) 17:28:14 437.375
SO-50 30 Sep 17:19:40 17:22:59 18° 328° (NNW) 17:26:15 436.795
SWISSCUBE 30 Sep 17:22:27 17:25:00 14° 302° (WNW) 17:27:33 437.505
STARS 30 Sep 17:24:24 17:28:38 47° 100° (E) 17:32:51 437.465
CUTE-I 30 Sep 17:28:31 17:33:03 30° 64° (ENE) 17:37:37 437.470
Cubesat XI-IV 30 Sep 17:29:21 17:33:54 30° 64° (ENE) 17:38:28 437.490
RS-15 30 Sep 17:33:58 17:35:51 10° 89° (E) 17:37:43 29.354- 29.394
BEESAT 30 Sep 17:35:36 17:37:32 12° 304° (NW) 17:39:27 436.000
Cosmos 2504 30 Sep 17:39:08 17:42:43 14° 284° (WNW) 17:46:22 435.465 / 435.565
HO-68 30 Sep 17:39:57 17:43:06 13° 45° (NE) 17:46:14 435.675
AO-7 30 Sep 17:47:53 17:52:57 17° 273° (W) 17:58:02 29.400- 29.500
LilacSat-2 30 Sep 18:09:30 18:13:11 56° 73° (ENE) 18:16:54 437.200
GOMX 1 30 Sep 18:11:37 18:16:56 75° 75° (ENE) 18:21:57 467.674
DOVE 4 30 Sep 18:18:16 18:22:47 39° 70° (ENE) 18:27:05 437.250
CUSAT 1 30 Sep 18:22:02 18:28:00 34° 85° (E) 18:34:49 437.405
CUBESAT XI-V 30 Sep 18:23:28 18:28:13 87° 104° (ESE) 18:32:53 437.345
MOZHAYETS 4 30 Sep 18:34:14 18:36:41 14° 301° (WNW) 18:39:09
NOAA 18 30 Sep 18:34:27 18:39:55 86° 73° (ENE) 18:45:25 137.9125
CUTE 1.7 + AOD 2 30 Sep 18:34:41 18:35:58 11° 59° (ENE) 18:37:16 437.475
CANX-2 30 Sep 18:35:46 18:37:47 13° 60° (ENE) 18:39:48 2200.000
KKS-1 30 Sep 18:36:33 18:39:37 19° 298° (WNW) 18:42:40 437.445
BRITE-PL 30 Sep 18:38:25 18:43:33 35° 265° (W) 18:48:34 437.365/2234.400
NOAA 15 30 Sep 18:41:04 18:46:18 59° 259° (WSW) 18:51:34 137.62
DANDE 30 Sep 18:42:27 18:46:23 18° 77° (ENE) 18:50:54 436.750
Cosmos 2499 30 Sep 18:44:31 18:50:54 28° 66° (ENE) 18:57:38 435.465 / 435.565
STARS 30 Sep 19:01:30 19:04:40 20° 297° (WNW) 19:07:50 437.465
STRAND 1 30 Sep 19:04:49 19:07:09 13° 88° (E) 19:09:29 437.568
CUTE-I 30 Sep 19:07:56 19:12:56 42° 262° (W) 19:18:00 437.470
CINEMA 3 30 Sep 19:08:12 19:12:05 32° 69° (ENE) 19:15:51 145.822/145.860
Cubesat XI-IV 30 Sep 19:08:48 19:13:49 42° 262° (W) 19:18:52 437.490
GONETS M04 30 Sep 19:08:49 19:17:17 47° 72° (ENE) 19:25:37
HO-68 30 Sep 19:22:23 19:29:18 55° 66° (ENE) 19:36:16 435.675
COMPASS 1 30 Sep 19:29:20 19:32:21 20° 64° (ENE) 19:35:23 437.405
ISS 30 Sep 19:33:04 19:35:50 26° 140° (SE) 19:38:39 145.825
RS-15 30 Sep 19:33:59 19:45:02 53° 112° (ESE) 19:56:37 29.354- 29.394
AO-85 30 Sep 19:39:46 19:42:48 16° 110° (ESE) 19:45:45 145.980
LilacSat-2 30 Sep 19:46:25 19:47:50 12° 271° (W) 19:49:17 437.200
GOMX 1 30 Sep 19:52:17 19:55:26 16° 271° (W) 19:58:31 467.674
CUBEBUG 2 30 Sep 19:54:54 19:58:24 27° 67° (ENE) 20:01:54 437.445
DOVE 4 30 Sep 19:56:28 20:00:34 26° 266° (W) 20:04:29 437.250
SEEDS 30 Sep 20:02:31 20:06:39 59° 74° (ENE) 20:10:51 437.485
CUBESAT XI-V 30 Sep 20:02:42 20:04:54 13° 302° (WNW) 20:07:04 437.345
CUSAT 1 30 Sep 20:02:59 20:09:37 55° 288° (WNW) 20:17:23 437.405
UWE-3 30 Sep 20:06:28 20:09:48 24° 66° (ENE) 20:13:09 435.000/436.395/437.385
CUTE 1.7 + AOD 2 30 Sep 20:06:53 20:11:08 88° 265° (W) 20:15:26 437.475
CANX-2 30 Sep 20:08:49 20:13:03 74° 258° (WSW) 20:17:21 2200.000
AAUSAT CUBESAT 2 30 Sep 20:16:02 20:20:00 45° 71° (ENE) 20:24:01 437.432
NOAA 18 30 Sep 20:18:26 20:21:17 14° 271° (W) 20:24:08 137.9125
Oscar 11 30 Sep 20:20:28 20:23:50 23° 65° (ENE) 20:27:14 145.826/435.025
DANDE 30 Sep 20:22:10 20:27:51 83° 282° (WNW) 20:35:18 436.750
ZACube-1 30 Sep 20:28:27 20:31:54 26° 67° (ENE) 20:35:22 437.345
Cosmos 2499 30 Sep 20:37:03 20:44:34 66° 266° (W) 20:52:39 435.465 / 435.565
STRAND 1 30 Sep 20:41:49 20:47:00 87° 289° (WNW) 20:52:10 437.568
CINEMA 3 30 Sep 20:45:33 20:49:15 26° 265° (W) 20:52:52 145.822/145.860
SO-50 30 Sep 20:47:28 20:48:14 10° 18° (NNE) 20:49:00 436.795
COMPASS 1 30 Sep 21:03:36 21:07:36 44° 262° (W) 21:11:40 437.405
GONETS M04 30 Sep 21:05:54 21:14:03 44° 273° (W) 21:22:07
ISS 30 Sep 21:08:57 21:12:10 57° 338° (NNW) 21:15:24 145.825
DELFI C3 30 Sep 21:09:12 21:12:37 27° 68° (ENE) 21:16:04 145.870
HO-68 30 Sep 21:11:02 21:17:19 33° 265° (W) 21:23:40 435.675
AO-85 30 Sep 21:17:35 21:22:46 83° 307° (NW) 21:27:35 145.980
FUNcube-1 30 Sep 21:19:51 21:23:58 84° 76° (ENE) 21:28:09 145.935
CUBEBUG 2 30 Sep 21:31:20 21:34:58 29° 264° (W) 21:38:37 437.445
PRISM 30 Sep 21:35:06 21:38:54 34° 97° (E) 21:42:39 437.425
SEEDS 30 Sep 21:40:29 21:42:45 14° 271° (W) 21:45:02 437.485
UWE-3 30 Sep 21:42:23 21:46:08 33° 264° (W) 21:49:54 435.000/436.395/437.385
RS-15 30 Sep 21:45:54 21:57:31 59° 318° (NW) 22:09:42 29.354- 29.394
CUSAT 1 30 Sep 21:50:05 21:53:41 14° 311° (NW) 21:57:28 437.405
AAUSAT CUBESAT 2 30 Sep 21:52:51 21:55:43 18° 269° (W) 21:58:37 437.432
HUMSAT D 30 Sep 21:55:39 21:59:32 44° 71° (ENE) 22:03:30 437.325/437.525
Oscar 11 30 Sep 21:55:42 21:59:45 39° 263° (W) 22:03:50 145.826/435.025
ESTCUBE 1 30 Sep 21:56:29 21:56:58 10° 56° (NE) 21:57:27 437.505/2401.250
ANTELSAT 30 Sep 22:01:42 22:02:38 11° 88° (E) 22:03:33 437.575/2403.000
ZACube-1 30 Sep 22:04:28 22:08:06 30° 264° (W) 22:11:48 437.345
DANDE 30 Sep 22:07:57 22:12:11 18° 307° (NW) 22:17:01 436.750
TIGRISAT 30 Sep 22:19:42 22:22:27 16° 91° (E) 22:25:11 435.000
STRAND 1 30 Sep 22:22:48 22:25:26 14° 304° (NW) 22:28:04 437.568
SO-50 30 Sep 22:26:03 22:30:11 31° 41° (NE) 22:34:14 436.795
AISAT 30 Sep 22:33:13 22:35:09 13° 58° (ENE) 22:37:04 437.250
Cosmos 2499 30 Sep 22:33:27 22:36:17 12° 286° (WNW) 22:39:09 435.465 / 435.565
DELFI C3 30 Sep 22:43:58 22:47:24 27° 265° (W) 22:50:52 145.870
ISS 30 Sep 22:46:08 22:49:04 29° 358° (N) 22:52:01 145.825
M-CUBED/EXP-1 PRIME 30 Sep 22:46:29 22:48:20 13° 57° (ENE) 22:50:07 437.505
DX 1 30 Sep 22:56:53 22:58:59 13° 59° (ENE) 23:01:05 434.975-435.025
UNISAT 6 30 Sep 23:00:19 23:04:33 42° 98° (E) 23:08:51 437.425
AO-85 30 Sep 23:00:21 23:03:52 19° 326° (NW) 23:07:13 145.980
CUBEBUG 1 30 Sep 23:09:37 23:13:31 32° 68° (ENE) 23:17:25 437.445
PRISM 30 Sep 23:10:45 23:14:02 23° 295° (WNW) 23:17:19 437.425
50 SAT 30 Sep 23:14:03 23:16:54 22° 66° (ENE) 23:19:46 437.505
VELOX 1 30 Sep 23:14:16 23:18:04 28° 66° (ENE) 23:21:52 145.980
ESTCUBE 1 30 Sep 23:28:25 23:32:57 74° 74° (ENE) 23:37:31 437.505/2401.250
HUMSAT D 30 Sep 23:32:38 23:35:24 17° 269° (W) 23:38:12 437.325/437.525
QB50P1 30 Sep 23:34:52 23:36:59 13° 90° (E) 23:39:05 145.935-145.965
SPROUT 30 Sep 23:35:02 23:38:31 25° 66° (ENE) 23:42:01 437.525
ANTELSAT 30 Sep 23:35:27 23:39:54 86° 286° (WNW) 23:44:27 437.575/2403.000
AUBIESAT-1 30 Sep 23:38:33 23:42:07 35° 65° (ENE) 23:45:27 437.475
POPSAT HIP 1 30 Sep 23:48:03 23:51:00 18° 92° (E) 23:53:57 437.405
TIGRISAT 30 Sep 23:55:08 23:59:28 57° 287° (WNW) 00:03:53 435.000
UKube-1 30 Sep 23:55:26 23:59:24 36° 68° (ENE) 00:03:24 .
NANOSAT C BR1 01 Oct 00:01:36 00:05:03 24° 94° (E) 00:08:28 145.865
RS-15 01 Oct 00:02:43 00:13:18 33° 350° (N) 00:24:08 29.354- 29.394
SO-50 01 Oct 00:06:28 00:10:47 41° 242° (WSW) 00:14:58 436.795
AISAT 01 Oct 00:06:31 00:10:58 84° 256° (WSW) 00:15:26 437.250
M-CUBED/EXP-1 PRIME 01 Oct 00:18:31 00:22:30 64° 253° (WSW) 00:26:12 437.505
ISS 01 Oct 00:22:52 00:26:03 45° 18° (NNE) 00:29:13 145.825
BEESAT 2 01 Oct 00:23:48 00:26:42 20° 113° (ESE) 00:29:40 435.950
QB50P2 01 Oct 00:27:51 00:31:59 51° 100° (E) 00:36:06 145.880/145.840
POLYITAN 1 01 Oct 00:30:01 00:34:09 51° 100° (E) 00:38:17 437.675
DX 1 01 Oct 00:30:12 00:34:35 78° 257° (WSW) 00:38:59 434.975-435.025
JAS-2 01 Oct 00:32:46 00:40:25 51° 97° (E) 00:47:38 435.910
UNISAT 6 01 Oct 00:37:36 00:41:02 22° 295° (WNW) 00:44:30 437.425
TISAT 1 01 Oct 00:43:01 00:46:32 27° 67° (ENE) 00:50:05 437.305
CUBEBUG 1 01 Oct 00:45:58 00:49:47 28° 265° (W) 00:53:36 437.445
50 SAT 01 Oct 00:47:04 00:50:15 28° 264° (W) 00:53:28 437.505
VELOX 1 01 Oct 00:50:27 00:54:26 32° 263° (W) 00:58:28 145.980
BUGSAT 1 01 Oct 00:51:35 00:55:11 30° 97° (E) 00:58:47 437.445
Cosmos 2491 01 Oct 00:52:35 01:00:27 34° 66° (ENE) 01:08:13 435.465 / 435.565
BEESAT 3 01 Oct 00:57:32 01:01:27 86° 125° (SE) 01:05:25 437.485
DUCHIFAT 1 01 Oct 01:02:59 01:07:11 81° 285° (WNW) 01:11:23 145.980
ITUPSAT 1 01 Oct 01:06:10 01:08:18 13° 56° (ENE) 01:10:27 437.325
ESTCUBE 1 01 Oct 01:08:16 01:10:17 13° 272° (W) 01:12:19 437.505/2401.250
QB50P1 01 Oct 01:08:59 01:13:10 61° 287° (WNW) 01:17:19 145.935-145.965
SPROUT 01 Oct 01:10:26 01:14:19 34° 263° (W) 01:18:13 437.525
AUBIESAT-1 01 Oct 01:13:45 01:16:39 20° 259° (W) 01:19:25 437.475
ANTELSAT 01 Oct 01:14:37 01:15:56 11° 302° (WNW) 01:17:16 437.575/2403.000
SWISSCUBE 01 Oct 01:16:09 01:19:18 18° 60° (ENE) 01:22:26 437.505
POPSAT HIP 1 01 Oct 01:22:59 01:27:00 44° 289° (WNW) 01:31:01 437.405
BEESAT 01 Oct 01:28:20 01:31:47 20° 61° (ENE) 01:35:17 436.000
UKube-1 01 Oct 01:32:03 01:35:33 24° 266° (W) 01:39:03 .
NANOSAT C BR1 01 Oct 01:37:02 01:40:51 33° 291° (WNW) 01:44:37 145.865
YUBILEINY 01 Oct 01:55:14 02:02:19 29° 81° (E) 02:09:21 435.215
ISS 01 Oct 01:59:25 02:02:31 39° 217° (SW) 02:05:37 145.825
BEESAT 2 01 Oct 02:00:26 02:04:14 45° 312° (NW) 02:08:06 435.950
Gurwin Techsat 1B 01 Oct 02:03:06 02:06:53 19° 91° (E) 02:10:38 435.225
QB50P2 01 Oct 02:04:37 02:07:25 18° 297° (WNW) 02:10:13 145.880/145.840
POLYITAN 1 01 Oct 02:06:47 02:09:35 18° 297° (WNW) 02:12:24 437.675
Oscar 19 01 Oct 02:16:12 02:21:13 48° 99° (E) 02:26:09 437.125/150
JAS-2 01 Oct 02:17:59 02:25:13 41° 297° (WNW) 02:32:08 435.910
TISAT 1 01 Oct 02:18:26 02:22:07 30° 264° (W) 02:25:49 437.305
RS-15 01 Oct 02:18:53 02:30:14 39° 24° (NNE) 02:41:32 29.354- 29.394
MOZHAYETS 4 01 Oct 02:25:25 02:27:36 13° 58° (ENE) 02:29:46
BUGSAT 1 01 Oct 02:27:10 02:30:27 25° 294° (WNW) 02:33:44 437.445
Cosmos 2504 01 Oct 02:35:36 02:39:36 16° 77° (ENE) 02:43:32 435.465 / 435.565
BEESAT 3 01 Oct 02:37:11 02:39:40 16° 325° (NW) 02:42:10 437.485
ITUPSAT 1 01 Oct 02:40:38 02:45:24 88° 75° (ENE) 02:50:14 437.325
Cosmos 2491 01 Oct 02:49:10 02:57:51 63° 268° (W) 03:06:28 435.465 / 435.565
SWISSCUBE 01 Oct 02:51:52 02:56:35 65° 258° (WSW) 03:01:21 437.505
BEESAT 01 Oct 03:04:32 03:09:12 54° 260° (W) 03:13:54 436.000
PCSat 01 Oct 03:14:10 03:18:08 21° 107° (ESE) 03:22:07 145.827
AIST 2 01 Oct 03:14:54 03:18:48 44° 119° (ESE) 03:22:45 435.215
ITAMSAT 1 01 Oct 03:17:24 03:21:40 25° 94° (E) 03:25:57 435.822/435.867
Gurwin Techsat 1B 01 Oct 03:42:00 03:47:16 63° 289° (WNW) 03:52:30 435.225
BEESAT 2 01 Oct 03:42:19 03:43:04 10° 333° (NNW) 03:43:49 435.950
YUBILEINY 01 Oct 03:49:37 03:58:22 70° 282° (WNW) 04:07:07 435.215
AO-7 01 Oct 03:49:45 03:56:51 30° 94° (E) 04:03:53 29.400- 29.500
CUBESAT XI-V 01 Oct 03:54:04 03:56:47 15° 59° (ENE) 03:59:29 437.345
Oscar 19 01 Oct 03:56:05 04:00:15 25° 298° (WNW) 04:04:22 437.125/150
KKS-1 01 Oct 03:59:14 04:03:38 66° 73° (ENE) 04:08:04 437.445
MOZHAYETS 4 01 Oct 03:59:31 04:04:06 84° 257° (WSW) 04:08:44
JAS-2 01 Oct 04:06:28 04:08:09 11° 319° (NW) 04:09:50 435.910
AO-85 01 Oct 04:07:26 04:11:02 25° 39° (NE) 04:14:26 145.980
ITUPSAT 1 01 Oct 04:22:23 04:23:54 11° 273° (W) 04:25:26 437.325
STARS 01 Oct 04:23:09 04:27:26 58° 72° (ENE) 04:31:45 437.465
Cosmos 2504 01 Oct 04:24:31 04:31:50 87° 98° (E) 04:39:03 435.465 / 435.565
RS-15 01 Oct 04:32:16 04:44:45 84° 53° (NE) 04:56:59 29.354- 29.394
Cosmos 2491 01 Oct 04:49:31 04:52:44 12° 290° (WNW) 04:55:58 435.465 / 435.565
CUSAT 1 01 Oct 04:53:31 05:00:14 32° 63° (ENE) 05:06:00 437.405
AIST 2 01 Oct 04:53:58 04:57:27 26° 319° (NW) 05:00:59 435.215
PCSat 01 Oct 04:55:39 05:01:02 65° 305° (NW) 05:06:27 145.827
ITAMSAT 1 01 Oct 04:56:21 05:01:22 48° 291° (WNW) 05:06:22 435.822/435.867
AIST 1 01 Oct 05:01:11 05:05:23 48° 94° (E) 05:09:36
HORYU 2 01 Oct 05:09:07 05:11:31 14° 90° (E) 05:13:55 437.375
DANDE 01 Oct 05:15:28 05:22:12 26° 59° (ENE) 05:28:36 436.750
Gurwin Techsat 1B 01 Oct 05:24:59 05:26:11 11° 308° (NW) 05:27:23 435.225
CUBESAT XI-V 01 Oct 05:28:51 05:33:33 75° 257° (WSW) 05:38:18 437.345
KKS-1 01 Oct 05:38:23 05:40:40 14° 270° (W) 05:42:57 437.445
AO-7 01 Oct 05:41:59 05:50:12 68° 294° (WNW) 05:58:24 29.400- 29.500
O/OREOS (USA 219) 01 Oct 05:46:47 05:48:04 11° 96° (E) 05:49:21 437.305
AO-85 01 Oct 05:47:41 05:51:39 43° 241° (WSW) 05:55:22 145.980
YUBILEINY 01 Oct 05:51:48 05:57:03 17° 306° (NW) 06:02:20 435.215
STARS 01 Oct 06:01:34 06:04:10 15° 269° (W) 06:06:46 437.465
GOMX 1 01 Oct 06:12:38 06:15:12 15° 89° (E) 06:17:43 467.674
Cosmos 2504 01 Oct 06:21:19 06:26:15 19° 299° (WNW) 06:31:10 435.465 / 435.565
STRAND 1 01 Oct 06:22:22 06:26:31 26° 63° (ENE) 06:30:41 437.568
CUSAT 1 01 Oct 06:35:19 06:42:48 59° 267° (W) 06:48:57 437.405
AIST 1 01 Oct 06:40:16 06:43:16 18° 292° (WNW) 06:46:17
BRITE-PL 01 Oct 06:40:45 06:45:32 73° 102° (ESE) 06:49:55 437.365/2234.400
PCSat 01 Oct 06:42:05 06:45:31 17° 328° (NNW) 06:48:57 145.827
HORYU 2 01 Oct 06:44:04 06:48:30 65° 288° (WNW) 06:52:55 437.375
RS-15 01 Oct 06:45:49 06:55:57 32° 257° (WSW) 07:05:57 29.354- 29.394
NOAA 15 01 Oct 06:53:36 06:58:39 43° 98° (E) 07:03:40 137.62
NOAA 18 01 Oct 06:54:15 06:58:58 29° 95° (E) 07:03:41 137.9125
DANDE 01 Oct 06:57:36 07:06:06 87° 260° (W) 07:13:47 436.750
LilacSat-2 01 Oct 07:14:17 07:18:07 61° 101° (ESE) 07:21:56 437.200
CUTE-I 01 Oct 07:21:50 07:27:10 63° 102° (ESE) 07:32:29 437.470
O/OREOS (USA 219) 01 Oct 07:22:09 07:26:43 85° 295° (WNW) 07:31:22 437.305
Cubesat XI-IV 01 Oct 07:22:53 07:28:14 64° 102° (ESE) 07:33:34 437.490
Cosmos 2499 01 Oct 07:27:31 07:31:50 17° 78° (ENE) 07:36:09 435.465 / 435.565
BEESAT 3 01 Oct 07:35:27 07:38:16 18° 37° (NE) 07:41:03 437.485
AO-7 01 Oct 07:36:12 07:41:32 19° 316° (NW) 07:46:53 29.400- 29.500
GOMX 1 01 Oct 07:49:28 07:53:44 52° 288° (WNW) 07:57:47 467.674
CUTE 1.7 + AOD 2 01 Oct 07:50:43 07:52:58 14° 89° (E) 07:55:12 437.475
DOVE 4 01 Oct 07:51:49 07:56:00 70° 103° (ESE) 08:00:07 437.250
CANX-2 01 Oct 07:52:17 07:55:06 17° 91° (E) 07:57:52 2200.000
STRAND 1 01 Oct 08:00:31 08:05:25 47° 261° (W) 08:10:23 437.568
GONETS M04 01 Oct 08:12:52 08:21:13 49° 88° (E) 08:29:34
BRITE-PL 01 Oct 08:20:42 08:23:20 15° 302° (WNW) 08:25:52 437.365/2234.400
CUSAT 1 01 Oct 08:21:06 08:22:54 11° 289° (WNW) 08:24:38 437.405
PRISM 01 Oct 08:26:38 08:30:27 36° 69° (ENE) 08:34:17 437.425
NOAA 15 01 Oct 08:33:44 08:38:15 29° 297° (WNW) 08:42:45 137.62
NOAA 18 01 Oct 08:34:37 08:39:47 44° 293° (WNW) 08:44:57 137.9125
HO-68 01 Oct 08:34:40 08:41:29 45° 99° (E) 08:48:16 435.675
CINEMA 3 01 Oct 08:36:21 08:40:28 55° 100° (E) 08:44:42 145.822/145.860
BEESAT 2 01 Oct 08:38:21 08:41:58 31° 44° (NE) 08:45:34 435.950
DANDE 01 Oct 08:41:53 08:47:42 21° 281° (WNW) 08:53:12 436.750
COMPASS 1 01 Oct 08:44:04 08:47:32 24° 94° (E) 08:50:57 437.405
LilacSat-2 01 Oct 08:50:10 08:51:56 13° 298° (WNW) 08:53:42 437.200
ANTELSAT 01 Oct 09:02:46 09:04:47 13° 60° (ENE) 09:06:48 437.575/2403.000
CUTE-I 01 Oct 09:02:48 09:06:46 21° 300° (WNW) 09:10:43 437.470
Cubesat XI-IV 01 Oct 09:03:54 09:07:50 21° 300° (WNW) 09:11:47 437.490
O/OREOS (USA 219) 01 Oct 09:04:31 09:06:53 14° 315° (NW) 09:09:16 437.305
FUNcube-1 01 Oct 09:06:24 09:08:42 14° 90° (E) 09:11:00 145.935
BEESAT 3 01 Oct 09:12:23 09:16:21 71° 237° (WSW) 09:20:18 437.485
Cosmos 2499 01 Oct 09:16:48 09:23:54 85° 278° (W) 09:31:03 435.465 / 435.565
CUBEBUG 2 01 Oct 09:18:26 09:22:34 44° 99° (E) 09:26:49 437.445
SEEDS 01 Oct 09:19:16 09:23:34 82° 105° (ESE) 09:27:49 437.485
TIGRISAT 01 Oct 09:21:06 09:24:03 19° 63° (ENE) 09:27:01 435.000
CUTE 1.7 + AOD 2 01 Oct 09:24:57 09:29:13 62° 287° (WNW) 09:33:27 437.475
CANX-2 01 Oct 09:27:03 09:31:15 51° 288° (WNW) 09:35:25 2200.000
UWE-3 01 Oct 09:28:33 09:32:37 38° 97° (E) 09:36:46 435.000/436.395/437.385
AAUSAT CUBESAT 2 01 Oct 09:30:50 09:35:00 60° 100° (E) 09:39:08 437.432
DOVE 4 01 Oct 09:31:19 09:33:09 13° 300° (WNW) 09:34:58 437.250
Oscar 11 01 Oct 09:40:12 09:44:05 31° 96° (E) 09:47:57 145.826/435.025
ZACube-1 01 Oct 09:49:14 09:53:21 40° 98° (E) 09:57:33 437.345
AIST 2 01 Oct 09:56:21 09:58:34 14° 31° (NNE) 10:00:48 435.215
UNISAT 6 01 Oct 10:01:36 10:05:42 49° 71° (ENE) 10:09:49 437.425
PRISM 01 Oct 10:02:32 10:05:50 23° 266° (W) 10:09:10 437.425
GONETS M04 01 Oct 10:09:51 10:18:09 43° 290° (WNW) 10:26:30
CINEMA 3 01 Oct 10:14:40 10:17:15 16° 297° (WNW) 10:19:51 145.822/145.860
BEESAT 2 01 Oct 10:16:10 10:19:47 32° 243° (WSW) 10:23:22 435.950
PCSat 01 Oct 10:16:21 10:17:43 11° 21° (NNE) 10:19:04 145.827
DELFI C3 01 Oct 10:18:24 10:22:00 30° 96° (E) 10:25:33 145.870
COMPASS 1 01 Oct 10:19:20 10:23:08 34° 291° (WNW) 10:26:56 437.405
PHONESAT 2.4 01 Oct 10:21:39 10:23:48 19° 165° (SSE) 10:25:57 2401.200-2431.200
HO-68 01 Oct 10:22:33 10:29:09 42° 298° (WNW) 10:35:44 435.675
DUCHIFAT 1 01 Oct 10:24:30 10:26:00 12° 59° (ENE) 10:27:29 145.980
QB50P1 01 Oct 10:29:54 10:32:21 15° 61° (ENE) 10:34:47 145.935-145.965
ANTELSAT 01 Oct 10:36:42 10:40:56 72° 257° (WSW) 10:45:13 437.575/2403.000
FUNcube-1 01 Oct 10:41:01 10:45:20 64° 286° (WNW) 10:49:44 145.935
POPSAT HIP 1 01 Oct 10:43:06 10:46:09 20° 64° (ENE) 10:49:12 437.405
JAS-2 01 Oct 10:47:30 10:53:24 31° 58° (ENE) 10:59:48 435.910
CUBEBUG 2 01 Oct 10:55:44 10:58:57 21° 295° (WNW) 11:02:13 437.445
NANOSAT C BR1 01 Oct 10:56:10 10:59:37 25° 66° (ENE) 11:03:03 145.865
TIGRISAT 01 Oct 10:56:20 11:00:25 47° 261° (W) 11:04:33 435.000
SEEDS 01 Oct 10:57:00 10:58:37 12° 301° (WNW) 11:00:15 437.485
UWE-3 01 Oct 11:05:25 11:08:54 24° 294° (WNW) 11:12:27 435.000/436.395/437.385
AAUSAT CUBESAT 2 01 Oct 11:07:34 11:10:01 15° 298° (WNW) 11:12:27 437.432
HUMSAT D 01 Oct 11:11:31 11:15:46 61° 101° (E) 11:20:01 437.325/437.525
